Regional Weather Roundup
Issued by NWS

Home | Current Version | Previous Version | Text Only | Print | Product List | Glossary Off
Versions: 1 2 3 4 5 6 7 8 9 10 11 12 13 14 15 16 17 18 19 20 21 22 23 24 25 26 27 28 29 30 31 32 33 34 35 36 37 38 39 40 41 42 43 44 45 46 47 48 49 50

078
ASUS43 KLSX 282359
RWRMO

WEATHER SUMMARY FOR MISSOURI
NATIONAL WEATHER SERVICE SPRINGFIELD MO
700 PM CDT SUN MAY 28 2017

NOTE: "FAIR" INDICATES FEW OR NO CLOUDS BELOW 12,000 FEET WITH NO
       SIGNIFICANT WEATHER AND/OR OBSTRUCTIONS TO VISIBILITY.
       CURRENT SKY AND/OR WEATHER CONDITIONS ARE NOT AVAILABLE FOR
       CHILLICOTHE AND FARMINGTON.

MOZ001>031-035>038-043-044-053-054-290100-
...NORTHERN AND WESTERN MISSOURI...

CITY           SKY/WX    TMP DP  RH WIND       PRES   REMARKS
KANSAS CTY INT MOSUNNY   77  49  37 W12       29.91F
6HR MIN TEMP:  77; 6HR MAX TEMP:  80;

KANSAS C DTWN  SUNNY     80  48  32 W7        29.90F
6HR MIN TEMP:  78; 6HR MAX TEMP:  82;

LEE`S SUMMIT   SUNNY     78  48  34 W12       29.92F
6HR MIN TEMP:  77; 6HR MAX TEMP:  81;

ST JOSEPH      SUNNY     81  48  31 W14       29.88F
6HR MIN TEMP:  78; 6HR MAX TEMP:  82;

CHILLICOTHE      N/A     79  49  34 CALM      29.88F
6HR MIN TEMP:  78; 6HR MAX TEMP:  81;

KIRKSVILLE     SUNNY     77  47  34 W7        29.87S
6HR MIN TEMP:  75; 6HR MAX TEMP:  80;


$$
MOZ066>068-077>081-088>096-101>105-290100-
...SOUTHWEST MISSOURI...

CITY           SKY/WX    TMP DP  RH WIND       PRES   REMARKS
SPRINGFIELD    SUNNY     76  54  46 NW8       29.95F
6HR MIN TEMP:  75; 6HR MAX TEMP:  78;

JOPLIN         SUNNY     79  54  41 NW7       29.95F
6HR MIN TEMP:  75; 6HR MAX TEMP:  81;

BRANSON        MOSUNNY   75  54  46 N9        29.98F

$$
MOZ032>034-039>042-045>050-055>058-069>072-290100-
...CENTRAL MISSOURI...

CITY           SKY/WX    TMP DP  RH WIND       PRES   REMARKS
COLUMBIA       MOSUNNY   74  57  55 W8        29.89F
6HR MIN TEMP:  74; 6HR MAX TEMP:  79;

JEFFERSON CITY SUNNY     80  54  40 W9        29.88F
6HR MIN TEMP:  77; 6HR MAX TEMP:  81;

ROLLA          SUNNY     74  58  57 W7        29.91F
6HR MIN TEMP:  70; 6HR MAX TEMP:  76;

SEDALIA        MOSUNNY   78  55  44 NW8       29.91F
6HR MIN TEMP:  75; 6HR MAX TEMP:  81;

WARRENSBURG    SUNNY     77  50  38 W6        29.90F
OSAGE BEACH    SUNNY     76  57  51 W5        29.93F

$$
MOZ051-052-059>065-290100-
...EAST CENTRAL MISSOURI...

CITY           SKY/WX    TMP DP  RH WIND       PRES   REMARKS
ST LOUIS INTL  MOSUNNY   79  55  43 W12       29.87S
6HR MIN TEMP:  75; 6HR MAX TEMP:  82;

SPIRIT OF STL  MOSUNNY   77  57  50 W7        29.86S
6HR MIN TEMP:  72; 6HR MAX TEMP:  80;

ST CHARLES     SUNNY     80  52  37 W12       29.85S
6HR MIN TEMP:  74; 6HR MAX TEMP:  81;


$$
MOZ072>076-082>087-097>100-106>115-290100-
...SOUTH CENTRAL AND SOUTHEAST MISSOURI...

CITY           SKY/WX    TMP DP  RH WIND       PRES   REMARKS
CAPE GIRARDEAU SUNNY     77  60  55 NW10      29.87S
6HR MIN TEMP:  73; 6HR MAX TEMP:  79; 6HR PCP:  0.03;

FARMINGTON     MOSUNNY   75  57  53 NW8       29.92R
6HR MIN TEMP:  71; 6HR MAX TEMP:  76;

POPLAR BLUFF   SUNNY     78  64  61 NW6       29.88
6HR MIN TEMP:  71; 6HR MAX TEMP:  79; 6HR PCP: TRACE;

WEST PLAINS    SUNNY     75  55  49 NW8       29.96R
6HR MIN TEMP:  73; 6HR MAX TEMP:  79;


$$




USA.gov is the U.S. government's official web portal to all federal, state and local government web resources and services.